When you browse on this site, cookies collect data to enhance your experience and personalize the content and advertising you see.
Visit our Privacy Policy to learn more. By continuing to use the site, you agree to this use of cookies and data.
  • In Austria
  • List of Countries
  • For 7 days
  • Water Temperature
  • Weather Map
  • News
  • Weather Widgets
  • user-avatar
    Login

    Hourly Weather Lubango

    Today, 5 December, Thursday

    Time Temperature Precipitation Wind Pressure Humidity
    00:00 +16°C° 0 mm 1 mps 607 mmHg 96%
    01:00 +15°C° 0 mm 1 mps 607 mmHg 95%
    02:00 +15°C° 0 mm 1 mps 606 mmHg 95%
    03:00 +15°C° 0 mm 1 mps 606 mmHg 96%
    04:00 +15°C° 0 mm 1 mps 606 mmHg 96%
    05:00 +15°C° 0 mm 1 mps 606 mmHg 94%
    06:00 +15°C° 0 mm 1 mps 607 mmHg 92%
    07:00 +16°C° 0 mm 1 mps 608 mmHg 91%
    08:00 +18°C° 0 mm 1 mps 608 mmHg 84%
    09:00 +18°C° 0 mm 2 mps 608 mmHg 77%
    10:00 +20°C° 0 mm 2 mps 608 mmHg 71%
    11:00 +20°C° 0.1 mm 2 mps 608 mmHg 69%
    12:00 +21°C° 0.1 mm 3 mps 608 mmHg 66%
    13:00 +21°C° 0.1 mm 3 mps 608 mmHg 64%
    14:00 +21°C° 0.1 mm 3 mps 608 mmHg 66%
    15:00 +21°C° 0.1 mm 3 mps 607 mmHg 68%
    16:00 +20°C° 0.1 mm 3 mps 607 mmHg 70%
    17:00 +19°C° 0 mm 2 mps 607 mmHg 76%
    18:00 +19°C° 0 mm 1 mps 607 mmHg 83%
    19:00 +16°C° 0 mm 1 mps 607 mmHg 89%
    20:00 +16°C° 0 mm 1 mps 607 mmHg 91%
    21:00 +16°C° 0 mm 1 mps 607 mmHg 93%
    22:00 +14°C° 0 mm 0 mps 607 mmHg 95%
    23:00 +15°C° 0 mm 1 mps 607 mmHg 94%

    Tomorrow, 6 December, Friday

    Time Temperature Precipitation Wind Pressure Humidity
    00:00 +15°C° 0 mm 1 mps 607 mmHg 94%
    01:00 +15°C° 0 mm 1 mps 607 mmHg 94%
    02:00 +15°C° 0 mm 1 mps 607 mmHg 95%
    03:00 +15°C° 0 mm 1 mps 606 mmHg 95%
    04:00 +15°C° 0 mm 1 mps 606 mmHg 95%
    05:00 +15°C° 0 mm 1 mps 607 mmHg 92%
    06:00 +16°C° 0 mm 1 mps 607 mmHg 90%
    07:00 +16°C° 0 mm 1 mps 608 mmHg 87%
    08:00 +19°C° 0 mm 1 mps 608 mmHg 80%
    09:00 +20°C° 0 mm 1 mps 609 mmHg 73%
    10:00 +21°C° 0 mm 2 mps 609 mmHg 66%
    11:00 +21°C° 0.2 mm 2 mps 609 mmHg 65%
    12:00 +22°C° 0.2 mm 3 mps 609 mmHg 64%
    13:00 +22°C° 0.2 mm 3 mps 609 mmHg 63%
    14:00 +21°C° 0.2 mm 3 mps 608 mmHg 65%
    15:00 +21°C° 0.2 mm 3 mps 608 mmHg 68%
    16:00 +20°C° 0.2 mm 3 mps 607 mmHg 70%
    17:00 +19°C° 0.1 mm 3 mps 607 mmHg 76%
    18:00 +18°C° 0.1 mm 2 mps 607 mmHg 83%
    19:00 +16°C° 0.1 mm 1 mps 607 mmHg 90%
    20:00 +16°C° 0 mm 1 mps 607 mmHg 91%
    21:00 +15°C° 0 mm 1 mps 607 mmHg 92%
    22:00 +15°C° 0 mm 1 mps 608 mmHg 93%
    23:00 +15°C° 0 mm 1 mps 607 mmHg 93%

    Day after tomorrow, 7 December, Saturday

    Time Temperature Precipitation Wind Pressure Humidity
    00:00 +14°C° 0 mm 1 mps 607 mmHg 93%
    01:00 +14°C° 0 mm 1 mps 607 mmHg 92%
    02:00 +14°C° 0 mm 1 mps 606 mmHg 91%
    03:00 +14°C° 0 mm 1 mps 606 mmHg 90%
    04:00 +13°C° 0 mm 1 mps 606 mmHg 89%
    05:00 +13°C° 0 mm 0 mps 606 mmHg 85%
    06:00 +14°C° 0 mm 0 mps 607 mmHg 80%
    07:00 +15°C° 0 mm 0 mps 607 mmHg 76%
    08:00 +18°C° 0 mm 1 mps 608 mmHg 70%
    09:00 +20°C° 0 mm 1 mps 609 mmHg 64%
    10:00 +22°C° 0 mm 1 mps 609 mmHg 58%
    11:00 +22°C° 0.1 mm 1 mps 609 mmHg 59%
    12:00 +21°C° 0.1 mm 2 mps 609 mmHg 60%
    13:00 +23°C° 0.1 mm 2 mps 608 mmHg 61%
    14:00 +21°C° 0.3 mm 2 mps 608 mmHg 64%
    15:00 +21°C° 0.3 mm 2 mps 607 mmHg 66%
    16:00 +20°C° 0.3 mm 3 mps 607 mmHg 68%
    17:00 +19°C° 0 mm 2 mps 607 mmHg 75%
    18:00 +17°C° 0 mm 2 mps 607 mmHg 82%
    19:00 +16°C° 0 mm 1 mps 607 mmHg 89%
    20:00 +15°C° 0 mm 1 mps 607 mmHg 90%
    21:00 +15°C° 0 mm 1 mps 607 mmHg 92%
    22:00 +15°C° 0 mm 1 mps 607 mmHg 93%
    23:00 +14°C° 0 mm 1 mps 607 mmHg 93%

    8 December, Sunday

    Time Temperature Precipitation Wind Pressure Humidity
    00:00 +14°C° 0 mm 1 mps 607 mmHg 94%
    01:00 +14°C° 0 mm 2 mps 606 mmHg 94%
    02:00 +14°C° 0 mm 2 mps 606 mmHg 93%
    03:00 +13°C° 0 mm 1 mps 606 mmHg 93%
    04:00 +13°C° 0 mm 1 mps 606 mmHg 92%
    05:00 +14°C° 0 mm 1 mps 606 mmHg 87%
    06:00 +14°C° 0 mm 1 mps 607 mmHg 82%
    07:00 +15°C° 0 mm 1 mps 607 mmHg 77%
    08:00 +17°C° 0 mm 2 mps 608 mmHg 67%
    09:00 +19°C° 0 mm 2 mps 609 mmHg 56%
    10:00 +21°C° 0 mm 2 mps 610 mmHg 46%
    11:00 +21°C° 0 mm 2 mps 609 mmHg 44%
    12:00 +22°C° 0 mm 3 mps 609 mmHg 42%
    13:00 +24°C° 0 mm 3 mps 609 mmHg 39%
    14:00 +22°C° 0 mm 3 mps 608 mmHg 40%
    15:00 +22°C° 0 mm 3 mps 608 mmHg 40%
    16:00 +22°C° 0 mm 4 mps 607 mmHg 41%
    17:00 +19°C° 0 mm 3 mps 607 mmHg 52%
    18:00 +17°C° 0 mm 2 mps 606 mmHg 63%
    19:00 +15°C° 0 mm 2 mps 606 mmHg 74%
    20:00 +14°C° 0 mm 1 mps 606 mmHg 72%
    21:00 +14°C° 0 mm 1 mps 606 mmHg 70%
    22:00 +13°C° 0 mm 1 mps 607 mmHg 68%
    23:00 +13°C° 0 mm 1 mps 606 mmHg 63%

    9 December, Monday

    Time Temperature Precipitation Wind Pressure Humidity
    00:00 +13°C° 0 mm 1 mps 606 mmHg 59%
    01:00 +12°C° 0 mm 1 mps 605 mmHg 54%
    02:00 +12°C° 0 mm 1 mps 605 mmHg 53%
    03:00 +11°C° 0 mm 1 mps 605 mmHg 52%
    04:00 +11°C° 0 mm 1 mps 605 mmHg 51%
    05:00 +12°C° 0 mm 1 mps 605 mmHg 50%
    06:00 +13°C° 0 mm 1 mps 606 mmHg 49%
    07:00 +14°C° 0 mm 1 mps 607 mmHg 48%
    08:00 +18°C° 0 mm 1 mps 608 mmHg 43%
    09:00 +19°C° 0 mm 2 mps 608 mmHg 38%
    10:00 +21°C° 0 mm 3 mps 609 mmHg 32%
    11:00 +21°C° 0 mm 3 mps 609 mmHg 32%
    12:00 +22°C° 0 mm 3 mps 609 mmHg 31%
    13:00 +23°C° 0 mm 4 mps 609 mmHg 31%
    14:00 +22°C° 0 mm 4 mps 608 mmHg 32%
    15:00 +22°C° 0 mm 4 mps 608 mmHg 33%
    16:00 +22°C° 0 mm 4 mps 607 mmHg 34%
    17:00 +19°C° 0 mm 3 mps 607 mmHg 44%
    18:00 +17°C° 0 mm 2 mps 606 mmHg 55%
    19:00 +15°C° 0 mm 1 mps 606 mmHg 66%
    20:00 +14°C° 0 mm 1 mps 606 mmHg 67%
    21:00 +13°C° 0 mm 1 mps 606 mmHg 69%
    22:00 +13°C° 0 mm 1 mps 606 mmHg 71%
    23:00 +12°C° 0 mm 1 mps 606 mmHg 70%

    10 December, Tuesday

    Time Temperature Precipitation Wind Pressure Humidity
    00:00 +12°C° 0 mm 1 mps 606 mmHg 70%
    01:00 +12°C° 0 mm 1 mps 605 mmHg 69%
    02:00 +11°C° 0 mm 1 mps 605 mmHg 65%
    03:00 +11°C° 0 mm 1 mps 605 mmHg 62%
    04:00 +11°C° 0 mm 1 mps 605 mmHg 58%
    05:00 +12°C° 0 mm 1 mps 605 mmHg 55%
    06:00 +13°C° 0 mm 1 mps 606 mmHg 52%
    07:00 +14°C° 0 mm 1 mps 607 mmHg 49%
    08:00 +16°C° 0 mm 2 mps 608 mmHg 43%
    09:00 +18°C° 0 mm 2 mps 609 mmHg 37%
    10:00 +21°C° 0 mm 3 mps 610 mmHg 31%
    11:00 +21°C° 0 mm 3 mps 609 mmHg 30%
    12:00 +22°C° 0 mm 3 mps 609 mmHg 30%
    13:00 +23°C° 0 mm 4 mps 609 mmHg 30%
    14:00 +23°C° 0 mm 4 mps 609 mmHg 31%
    15:00 +22°C° 0 mm 4 mps 608 mmHg 32%
    16:00 +22°C° 0 mm 4 mps 608 mmHg 34%
    17:00 +20°C° 0 mm 3 mps 607 mmHg 44%
    18:00 +17°C° 0 mm 2 mps 607 mmHg 54%
    19:00 +15°C° 0 mm 1 mps 606 mmHg 64%
    20:00 +14°C° 0 mm 1 mps 606 mmHg 66%
    21:00 +14°C° 0 mm 1 mps 607 mmHg 68%
    22:00 +13°C° 0 mm 1 mps 607 mmHg 70%
    23:00 +13°C° 0 mm 1 mps 606 mmHg 68%
    Show more